Location: Zagreb
(45.8000°N, 16.0000°E)
Time: 15:45:50
(UTC+01:00)

Tiros 1 despin weight - Pass Details

Date: 03 December 2023
Orbit: 581 x 624 km, 48.2° (Epoch: 02 March)

Event Time Altitude Azimuth Distance (km) Brightness Sun altitude
Rises 17:58:36 0° 212° (SSW) 2,795 ? -17.8°
Reaches altitude 10° 18:01:08 10° 200° (SSW) 1,893 ? -18.3°
Maximum altitude 18:04:46 27° 143° (SE) 1,135 ? -18.9°
Enters shadow 18:05:10 26° 133° (SE) 1,147 ? -18.9°
